Карточка аэропорта USSS

Внимание!
Информация на этой странице в стадии наполнения.
Если вы не увидели какой-то информации, или заметили неточность - пожалуйста сообщите нам!
Спасибо!
Команда RU-STAFF
Название аэропортаКольцово
Название аэропорта (англ.)Koltsovo
Превышение766 ft. (233.5 m.)
Координаты56°44.586', 60°48.186'
Высота перехода900m
Эшелон переходаQFE>=739mm:FL050; QFE 712mm-738mm:FL060; QFE<=712mm:FL70
Коды ответчика5520-5557
Зона ОрВДЕкатеринбург РПИ (USSV)
Данные METARUSSS 012000Z 14002MPS CAVOK 03/00 Q1028 R08L/010060 R08R/010060 NOSIG RMK QFE751/1001
Проноз погоды (TAF)USSS 011651Z 0118/0218 12003G08MPS 9999 BKN016 BECMG 0204/0207 16003G13MPS SCT030
NOTAMshow/hide NOTAM
AWOS   TABLE

Информация о ВПП

ВПП Длина ВПП (м.) Покрытие Курс ВПП Частота ILS
08R3026Бетон79109.9
26L3026Бетон259109.5
08L3004Асфальтобетон75111.7
26R3004Асфальтобетон255110.5

Диспетчерские позиции

Позывной Наименование органа УВД Частота
USSS_ATIS_APPКольцово АТИС127.850
USSV_FSS_CTRКольцово Транзит131.900
USSS_R_APPКольцово-Круг118.7
USSS_APPКольцово-Подход125.9
USSS_GNDКольцово-Руление119.0
USSS_TWRКольцово-Старт124.3
USSSFM1Машина сопровождения119.000



Спутниковое изображение